Location: Bussy-Saint-Georges
(48.8410°N, 2.7017°E)
Time: 16:19:46
(UTC+00:00)

IRAS Rocket - Pass Details

Date: 18 October 2021
Orbit: 847 x 878 km, 100.1° (Epoch: 29 November)

Event Time Altitude Azimuth Distance (km) Brightness Sun altitude
Rises 18:52:37 0° 15° (NNE) 3,467 7.3 -20.3°
Reaches altitude 10° 18:55:01 10° 13° (NNE) 2,521 6.6 -20.7°
Maximum altitude 19:00:35 71° 291° (WNW) 913 4.5 -21.6°
Drops below altitude 10° 19:06:03 10° 208° (SSW) 2,483 6.8 -22.5°
Sets 19:08:24 0° 207° (SSW) 3,411 7.5 -22.9°
